Parsons, KS

2:19 AM CDT on July 23, 2017 (GMT -0500)
Tri-City

Weather History for KPPF - January, 2014

Change the Weather History Date:

Sunday, January 26, 2014

  Actual Average Record
Temperature  
Mean Temperature 45 °F -  
Max Temperature 63 °F 42 °F 68 °F (2015)
Min Temperature 27 °F 22 °F 2 °F (1991)
Degree Days  
Heating Degree Days 20    
Moisture  
Dew Point 25 °F    
Average Humidity 55    
Maximum Humidity 92    
Minimum Humidity 23    
Precipitation  
Precipitation 0.00 in - - ()
Sea Level Pressure  
Sea Level Pressure 29.83 in    
Wind  
Wind Speed 8 mph (NNW)    
Max Wind Speed 28 mph    
Max Gust Speed 47 mph    
Visibility 10 miles    
Events      
Averages and records for this station are not official NWS values.
T = Trace of Precipitation, MM = Missing Value Source: NWS Daily Summary

Daily Weather History Graph

Daily Weather History Graph

Search for Another Location

Airport or City:

Trip Planner

Search our weather history database for the weather conditions in past years. The results will help you decide how hot, cold, wet, or windy it might be!

Date:

Astronomy

Jan. 26, 2014 Rise Set
Actual Time 7:29 AM CST 5:39 PM CST
Civil Twilight 7:01 AM CST 6:07 PM CST
Nautical Twilight 6:30 AM CST 6:39 PM CST
Astronomical Twilight 5:59 AM CST 7:10 PM CST
Moon 3:07 AM CST (1/26) 1:30 PM CST (1/26)
Length of Visible Light 11h 05m
Length of Day
10h 10m
Waning Crescent, 23% of the Moon is Illuminated
Jan 26
Waning Crescent
Jan 30
New
Feb 6
First Quarter
Feb 14
Full
Feb 22
Last Quarter

Hourly Weather History & Observations

Time (CST) Temp. Windchill Dew Point Humidity Pressure Visibility Wind Dir Wind Speed Gust Speed Precip Events Conditions
12:52 AM 32.0 °F 25.6 °F 26.1 °F 79% 29.86 in 10.0 mi South 6.9 mph - N/A   Clear
1:52 AM 34.0 °F 28.0 °F 27.0 °F 75% 29.82 in 10.0 mi South 6.9 mph - N/A   Clear
2:52 AM 35.1 °F 29.3 °F 28.0 °F 76% 29.81 in 10.0 mi South 6.9 mph - N/A   Clear
3:52 AM 33.1 °F 28.7 °F 27.0 °F 78% 29.80 in 10.0 mi South 4.6 mph - N/A   Clear
4:52 AM 27.0 °F - 23.0 °F 85% 29.79 in 10.0 mi Calm Calm - N/A   Clear
5:52 AM 27.0 °F - 24.1 °F 89% 29.79 in 10.0 mi Calm Calm - N/A   Clear
6:52 AM 30.0 °F 25.2 °F 26.1 °F 85% 29.78 in 10.0 mi South 4.6 mph - N/A   Clear
7:52 AM 27.0 °F 23.0 °F 25.0 °F 92% 29.78 in 10.0 mi SSE 3.5 mph - N/A   Clear
8:52 AM 39.0 °F - 30.0 °F 70% 29.80 in 10.0 mi Calm Calm - N/A   Clear
9:52 AM 46.0 °F 42.5 °F 30.9 °F 56% 29.79 in 10.0 mi SW 6.9 mph - N/A   Clear
10:52 AM 54.0 °F - 30.9 °F 41% 29.78 in 10.0 mi NW 9.2 mph - N/A   Clear
11:52 AM 59.0 °F - 30.9 °F 35% 29.77 in 10.0 mi North 8.1 mph - N/A   Clear
12:52 PM 62.1 °F - 30.0 °F 30% 29.73 in 10.0 mi NNW 9.2 mph - N/A   Clear
1:52 PM 63.0 °F - 28.0 °F 27% 29.71 in 10.0 mi NNW 12.7 mph - N/A   Clear
2:52 PM 63.0 °F - 26.1 °F 25% 29.70 in 10.0 mi NNW 10.4 mph - N/A   Clear
3:52 PM 62.1 °F - 24.1 °F 23% 29.71 in 10.0 mi North 10.4 mph - N/A   Clear
4:52 PM 60.1 °F - 24.1 °F 25% 29.72 in 10.0 mi North 6.9 mph - N/A   Clear
5:52 PM 48.9 °F - 24.1 °F 38% 29.74 in 10.0 mi North 3.5 mph - N/A   Clear
6:52 PM 35.1 °F - 21.0 °F 57% 29.79 in 10.0 mi Calm Calm - N/A   Clear
7:52 PM 32.0 °F - 19.9 °F 61% 29.84 in 10.0 mi Calm Calm - N/A   Clear
8:52 PM 43.0 °F 33.3 °F 26.1 °F 51% 29.95 in 10.0 mi North 25.3 mph 39.1 mph N/A   Mostly Cloudy
9:04 PM 42.1 °F 31.7 °F 26.1 °F 53% 29.96 in 10.0 mi North 27.6 mph 47.2 mph N/A   Partly Cloudy
9:52 PM 36.0 °F 24.2 °F 19.9 °F 52% 30.04 in 10.0 mi North 24.2 mph 40.3 mph N/A   Clear
10:52 PM 35.1 °F 23.3 °F 12.9 °F 40% 30.09 in 10.0 mi North 23.0 mph 32.2 mph N/A   Partly Cloudy
11:52 PM 32.0 °F 19.8 °F 3.0 °F 29% 30.15 in 10.0 mi North 20.7 mph 29.9 mph N/A   Overcast